EW5449 Weather Reports


Display with metric or nautical units.
time (UTC)temp
F
wind
direction
speed
MPH
gust
MPH
rain 1hr
in
rain 24hr
in
rain mn
in
humidity
%
barometer
mb
20260507231521 63 139 0.0 2.0 0.00 0.00 0.00 56 1008.0
20260507230021 64 110 0.0 2.0 0.00 0.00 0.00 56 1007.8
20260507224520 65 112 0.0 2.0 0.00 0.00 0.00 54 1007.5
20260507223019 65 118 0.0 2.0 0.00 0.00 0.00 53 1007.3
20260507221529 66 113 0.0 2.0 0.00 0.00 0.00 51 1007.1
20260507220019 68 93 0.0 2.0 0.00 0.00 0.00 47 1006.9
20260507214517 67 338 0.0 2.0 0.00 0.00 0.00 41 1006.9
20260507213023 67 5 0.0 2.0 0.00 0.00 0.00 40 1006.8
20260507211518 67 360 0.0 2.0 0.00 0.00 0.00 39 1006.8
20260507210024 68 333 0.0 3.0 0.00 0.00 0.00 37 1006.7
20260507204515 67 173 0.0 2.0 0.00 0.00 0.00 40 1006.7
20260507203015 67 114 0.0 2.0 0.00 0.00 0.00 39 1006.8
20260507201512 67 124 0.0 2.0 0.00 0.00 0.00 40 1006.8
20260507200013 67 172 0.0 2.0 0.00 0.00 0.00 39 1007.0
20260507194525 68 132 0.0 3.0 0.00 0.00 0.00 41 1007.1
20260507193008 69 201 1.0 4.0 0.00 0.00 0.00 35 1007.4
20260507191505 70 349 0.0 2.0 0.00 0.00 0.00 36 1007.6
20260507190010 70 329 0.0 6.0 0.00 0.00 0.00 37 1007.7
20260507184559 68 355 0.0 3.0 0.00 0.00 0.00 40 1007.9
20260507183114 67 179 0.0 2.0 0.00 0.00 0.00 37 1008.0
20260507181559 67 335 1.0 9.0 0.00 0.00 0.00 38 1008.3
20260507180053 66 209 1.0 4.0 0.00 0.00 0.00 39 1008.4
20260507174559 66 325 1.0 4.0 0.00 0.00 0.00 40 1008.7
20260507173048 65 209 0.0 3.0 0.00 0.00 0.00 41 1009.0
20260507171543 65 192 2.0 6.0 0.00 0.00 0.00 41 1009.3
20260507170043 65 355 1.0 8.0 0.00 0.00 0.00 41 1009.6
20260507164546 64 344 2.0 9.0 0.00 0.00 0.00 41 1010.0
20260507163035 63 348 1.0 5.0 0.00 0.00 0.00 42 1010.1
20260507161547 62 350 0.0 4.0 0.00 0.00 0.00 41 1010.3
20260507160029 61 215 0.0 5.0 0.00 0.00 0.00 45 1010.6
20260507154527 60 335 0.0 4.0 0.00 0.00 0.00 43 1010.9
20260507153033 60 355 1.0 4.0 0.00 0.00 0.00 45 1011.0
20260507151523 59 342 0.0 4.0 0.00 0.00 0.00 47 1011.2
20260507150020 58 204 1.0 6.0 0.00 0.00 0.00 49 1011.3
20260507144518 57 221 0.0 5.0 0.00 0.00 0.00 51 1011.4
20260507143022 55 205 0.0 3.0 0.00 0.00 0.00 53 1011.9
20260507141520 55 338 0.0 2.0 0.00 0.00 0.00 53 1012.1
20260507140020 54 323 0.0 3.0 0.00 0.00 0.00 52 1012.4
20260507134515 54 346 0.0 2.0 0.00 0.01 0.00 52 1012.6
20260507133015 54 345 1.0 4.0 0.00 0.01 0.00 50 1012.8
20260507131518 54 329 0.0 4.0 0.00 0.01 0.00 51 1012.7
20260507130012 54 336 0.0 2.0 0.00 0.01 0.00 53 1012.7
20260507124516 53 225 0.0 2.0 0.00 0.07 0.00 54 1012.6
20260507123011 53 337 0.0 2.0 0.00 0.07 0.00 54 1012.6
20260507121513 53 342 0.0 2.0 0.00 0.07 0.00 56 1012.5
20260507120009 53 338 0.0 2.0 0.00 0.07 0.00 54 1012.5
20260507114508 53 336 0.0 2.0 0.00 0.11 0.00 55 1012.4
20260507113019 52 343 0.0 3.0 0.00 0.11 0.00 54 1012.2
20260507111504 53 349 1.0 4.0 0.00 0.11 0.00 54 1011.9
20260507110001 53 340 0.0 4.0 0.00 0.11 0.00 56 1012.0
20260507104559 53 340 0.0 3.0 0.00 0.11 0.00 56 1011.8
20260507103058 53 340 0.0 3.0 0.00 0.11 0.00 57 1011.7
20260507101556 53 348 1.0 3.0 0.00 0.11 0.00 57 1011.5
20260507100057 53 336 0.0 4.0 0.00 0.11 0.00 59 1011.2
20260507094551 54 339 1.0 4.0 0.00 0.11 0.00 63 1011.2
20260507093051 54 349 0.0 2.0 0.00 0.11 0.00 70 1011.1
20260507091558 54 340 0.0 2.0 0.00 0.11 0.00 71 1011.0
20260507090048 54 331 0.0 2.0 0.00 0.11 0.00 70 1011.0
20260507084553 54 330 0.0 2.0 0.00 0.11 0.00 70 1011.0
20260507083045 54 333 0.0 2.0 0.00 0.11 0.00 70 1011.0
20260507081552 55 340 0.0 2.0 0.00 0.11 0.00 70 1011.0
20260507080045 55 338 0.0 2.0 0.00 0.11 0.00 69 1011.0
20260507074549 55 344 0.0 2.0 0.00 0.11 0.00 69 1010.6
20260507073043 55 346 0.0 2.0 0.00 0.11 0.00 69 1010.4
20260507071542 55 296 0.0 2.0 0.00 0.11 0.00 70 1010.5
20260507070045 55 336 0.0 2.0 0.00 0.11 0.00 70 1010.4
20260507064540 55 334 0.0 2.0 0.00 0.11 0.00 70 1010.6
20260507063042 55 334 0.0 2.0 0.00 0.11 0.00 69 1010.7
20260507061539 55 314 0.0 4.0 0.00 0.11 0.00 69 1011.0
20260507060037 56 338 0.0 2.0 0.00 0.11 0.00 68 1011.1
20260507054534 56 330 0.0 2.0 0.00 0.11 0.00 69 1011.0
20260507053032 56 342 0.0 3.0 0.00 0.11 0.00 70 1011.0
20260507051531 56 340 0.0 4.0 0.00 0.11 0.00 70 1010.7
20260507050032 56 210 0.0 3.0 0.00 0.11 0.00 71 1010.9
20260507044527 56 355 0.0 6.0 0.00 0.11 0.00 72 1010.5
20260507043027 57 328 2.0 4.0 0.00 0.11 0.00 75 1010.5
20260507041521 57 339 0.0 8.0 0.00 0.11 0.00 75 1010.1
20260507040016 58 333 0.0 6.0 0.00 0.11 0.00 74 1010.5
20260507034522 58 342 0.0 4.0 0.00 0.11 0.11 74 1009.8
20260507033015 58 323 1.0 4.0 0.00 0.11 0.11 73 1010.4
20260507031511 59 346 1.0 5.0 0.00 0.11 0.11 72 1010.3
20260507030010 59 336 0.0 2.0 0.00 0.11 0.11 71 1009.9
20260507024514 59 343 0.0 5.0 0.00 0.11 0.11 70 1010.1
20260507023008 60 328 2.0 4.0 0.00 0.11 0.11 70 1010.1
20260507021506 60 338 1.0 6.0 0.00 0.11 0.11 70 1009.4
20260507020005 61 334 0.0 3.0 0.00 0.11 0.11 71 1009.4
20260507014503 61 340 0.0 5.0 0.00 0.11 0.11 70 1009.6
20260507013003 62 338 1.0 3.0 0.00 0.11 0.11 70 1009.6
20260507011501 62 340 0.0 2.0 0.00 0.11 0.11 71 1009.1
20260507010101 63 340 0.0 2.0 0.00 0.11 0.11 71 1008.8
20260507004603 63 342 0.0 4.0 0.00 0.11 0.11 72 1009.0
20260507003115 64 340 0.0 3.0 0.00 0.11 0.11 73 1009.1
20260507001614 64 337 0.0 2.0 0.00 0.11 0.11 74 1008.8
20260507000056 64 329 0.0 3.0 0.00 0.11 0.11 73 1008.7
20260506234555 65 338 0.0 2.0 0.00 0.11 0.11 73 1008.6
20260506233055 66 340 0.0 3.0 0.00 0.11 0.11 73 1007.9